SCP
0 0 0 0 0 0 0 0 0 0 0 0 0 0 -0 -0 -0 0 0 0 0 0 0 0 0 0 0 0 0 0 0 0 0 0 0 0 0 0 0 0 0 0 0 0 0
0 0 0 0 0 0 0 0 0 0 0 -0 -0 0 0 -0 0 0 0 0 0 0 0 0 0 0 0 0 0 0 0 0 0 0 0 0 0 0 0 0 0 0 0 0 0
0 0 0 0 0 0 0 0 0 0 0 0 0 0 0 -0 0 0 0 0 0 0 0 0 0 0 0 0 0 0 0 0 0 0 0 0 0 0 0 0 0 0 0 0 0
0 0 0 0 0 0 0 0 0 0 0 0 0 0 0 -0 0 0 0 0 0 0 0 0 0 0 0 0 0 0 0 0 0 0 0 0 0 0 0 0 0 0 0 0 0
0 0 0 0 0 0 0 0 0 0 0 0 0 0 -0 0 0 0 0 0 0 0 0 0 0 0 0 0 0 0 0 0 0 0 0 0 0 0 0 0 0 0 0 0 0
0 0 0 0 0 0 0 0 0 0 0 0 0 0 0 0 0 0 0 0 0 0 0 0 0 0 0 0 0 0 0 0 0 0 0 0 0 0 0 0 0 0 0 0 0
0 0 0 0 0 0 0 0 0 0 0 0 0 0 0 0 0 0 0 0 0 0 0 0 0 0 0 0 0 0 0 0 0 0 0 0 0 0 0 0 0 0 0 0 0
0 0 0 0 0 0 0 0 0 0 0 0 0 0 0 0 0 0 0 0 0 0 0 0 0 0 0 0 0 0 0 0 0 0 0 0 0 0 0 0 0 0 0 0 0
0 0 0 0 0 0 0 0 0 0 0 0 0 0 0 0 0 0 0 0 0 0 0 0 0 0 0 0 0 0 0 0 0 0 0 0 0 0 0 0 0 0 0 0 0
0 0 0 0 0 0 0 0 0 0 0 0 0 0 0 0 0 0 0 0 0 0 0 0 0 0 0 0 0 0 0 0 0 0 0 0 0 0 0 0 0 0 0 0 0
0 0 0 0 0 0 0 0 0 0 0 0 0 0 0 0 0 0 0 0 0 0 0 0 0 0 0 0 0 0 0 0 0 0 0 0 0 0 0 0 0 0 0 0 0
0 0 0 0 0 0 0 0 0 0 0 0 0 0 0 0 0 0 0 0 0 0 0 0 0 0 0 0 0 0 0 0 0 0 0 0 0 0 0 0 0 0 0 0 0
0 0 0 0 0 0 0 0 0 0 0 0 0 0 0 0 0 0 0 0 0 0 0 0 0 0 0 0 0 0 0 0 0 0 0 0 0 0 0 0 0 0 0 0 0
0 0 0 0 0 0 0 0 0 0 0 0 0 0 0 0 0 0 0 0 0 0 0 0 0 0 0 0 0 0 0 0 0 0 0 0 0 0 0 0 -0 0 0 0 0
0 0 0 0 0 0 0 0 0 0 0 0 0 0 0 0 0 0 0 0 0 0 0 0 0 0 0 0 0 0 0 0 0 0 0 0 0 0 0 0 0 0 0 0 0
0 0 0 0 0 0 0 0 0 0 0 0 0 0 0 0 0 0 0 0 0 0 0 0 0 0 0 0 0 0 0 0 0 0 0 0 0 0 0 0 0 0 0 0 0
0 0 0 0 0 0 0 0 0 0 0 0 0 0 0 0 0 0 0 0 0 0 0 0 0 0 0 0 0 0 0 0 0 0 0 0 0 0 0 0 0 0 0 0 0
0 0 0 0 0 0 0 0 0 0 0 0 0 0 0 0 0 0 0 0 0 0 0 0 0 0 0 0 0 0 0 0 0 0 0 0 0 0 0 0 0 -0 -0 -0 0
0 0 0 0 0 0 0 0 0 0 0 0 0 0 0 0 0 0 0 0 0 0 0 0 0 0 0 0 0 0 0 0 0 0 0 0 0 0 0 0 0 -0 0 0 0
0 0 0 0 0 0 0 0 0 0 0 0 0 0 0 0 0 0 0 0 0 0 0 0 0 0 0 0 0 0 0 0 0 0 0 0 0 0 0 0 0 0 0 0 0
0 0 0 0 0 0 0 0 0 0 0 0 0 0 0 0 0 0 0 0 0 0 0 0 0 0 0 0 0 0 0 0 0 0 0 0 0 0 0 0 0 0 0 0 0
0 0 0 0 0 0 0 0 0 0 0 0 0 0 0 0 0 0 0 0 0 0 0 0 0 0 0 0 0 0 0 0 0 0 0 0 0 0 0 0 -0 0 0 0 0
0 0 0 0 0 0 0 0 0 0 0 0 0 0 0 0 0 0 0 0 0 0 0 0 0 0 0 0 0 0 0 0 0 0 0 0 0 0 0 0 0 0 0 0 0
0 0 0 0 0 0 0 0 0 0 0 0 0 0 0 0 0 0 0 0 0 0 0 0 0 0 0 0 0 0 0 0 0 0 0 0 0 0 0 0 0 0 0 0 0
0 0 0 0 0 0 0 0 0 0 0 0 0 0 0 0 0 0 0 0 0 0 0 0 0 0 0 0 0 0 0 0 0 0 0 0 0 0 0 0 0 0 0 0 0
0 0 0 0 0 0 0 0 0 0 0 0 0 0 0 0 0 0 0 0 0 0 0 0 0 0 0 0 0 0 0 0 0 0 0 0 0 0 0 0 0 0 0 0 0
0 0 0 0 0 0 0 0 0 0 0 0 0 0 0 0 0 0 0 0 0 0 0 0 0 0 0 0 0 0 0 0 0 0 0 0 0 0 0 0 0 0 0 0 0
Wind_Speed_500mb
3 4 5 4 5 5 5 9 9 10 13 13 12 11 10 11 11 8 15 14 13 10 9 10 13 14 16 13 13 6 9 4 2 4 5 14 11 13 11 14 10 8 12 12 28
3 4 4 4 4 5 6 6 7 10 11 12 11 11 13 17 18 20 17 16 12 9 6 10 13 14 8 11 10 11 7 3 4 5 6 2 9 14 11 21 10 15 14 20 34
3 3 6 6 6 5 5 5 8 9 8 8 9 12 13 7 8 14 15 12 11 10 13 14 11 11 12 13 13 6 5 4 7 9 9 9 15 18 11 7 5 11 25 32 41
1 3 7 7 7 6 5 6 6 6 7 7 9 12 10 2 5 8 10 9 7 7 9 10 8 6 8 7 11 8 14 8 4 6 7 7 11 19 8 8 3 10 12 17 26
1 3 5 6 6 5 4 4 4 4 5 7 8 12 7 10 10 7 8 6 4 4 9 12 17 9 6 5 7 7 9 11 10 12 9 9 12 10 30 29 19 9 10 13 20
1 2 4 3 3 3 2 2 2 3 4 8 9 6 5 9 7 7 5 4 2 5 7 7 9 11 8 7 8 6 12 22 18 9 5 5 8 7 5 6 3 6 7 13 20
2 1 0 2 2 1 2 1 2 4 5 7 8 8 9 9 8 7 5 7 6 8 9 11 9 4 5 5 8 6 10 13 8 7 5 5 6 6 17 7 9 9 5 8 17
6 4 3 3 3 2 1 1 3 4 5 8 9 5 9 9 7 4 5 9 10 10 10 10 9 10 6 3 7 8 9 9 10 9 7 8 12 10 3 6 15 19 6 5 13
9 8 7 5 4 4 3 4 5 7 8 8 7 6 8 8 3 3 4 8 12 13 13 9 7 8 5 8 8 13 2 6 12 11 2 8 14 15 8 25 38 24 8 0 8
15 13 11 9 7 6 5 6 6 6 7 7 9 6 9 5 6 8 7 8 11 15 12 8 10 7 9 10 3 1 4 5 6 10 13 9 26 20 40 37 47 20 11 5 13
19 17 14 11 10 8 8 9 7 4 5 8 7 10 12 11 6 8 11 11 10 10 7 9 13 4 1 4 4 4 2 4 8 9 10 3 14 34 44 26 31 13 14 9 15
21 19 16 14 11 10 11 5 4 8 13 11 12 12 15 7 5 8 4 3 7 6 4 11 7 3 2 6 6 5 4 7 10 9 6 13 19 11 14 10 11 23 14 2 12
26 23 20 17 14 12 12 7 8 9 6 3 7 6 8 6 4 4 4 5 8 6 7 9 2 6 5 7 8 7 5 5 7 14 4 12 13 14 10 15 15 8 2 4 14
30 28 24 19 13 15 12 12 13 8 8 3 3 1 5 6 5 3 6 5 5 6 7 8 5 5 7 7 5 4 4 4 8 10 4 10 8 11 13 8 7 6 3 7 16
35 32 29 27 10 20 11 15 15 6 5 3 4 7 9 6 9 7 5 5 7 5 7 4 5 8 9 2 3 6 4 7 3 3 5 10 7 14 8 6 9 20 7 4 9
39 36 35 32 20 19 19 23 17 11 12 4 5 6 7 3 3 7 4 7 7 8 8 5 5 5 5 2 5 6 5 12 9 4 6 5 7 9 6 7 10 15 9 8 6
43 39 39 36 25 24 29 27 9 7 8 6 6 7 4 6 4 4 5 4 7 9 2 7 4 2 4 5 9 12 11 8 12 9 8 5 4 13 10 9 10 23 20 16 8
44 40 43 38 28 33 38 9 7 6 11 5 8 8 9 8 2 5 8 4 3 7 6 9 8 2 4 4 6 6 8 9 9 5 9 8 8 5 6 15 22 29 14 6 15
48 42 43 43 36 44 30 5 16 14 14 18 8 9 5 6 8 6 11 11 9 9 11 8 3 3 7 4 5 1 4 5 8 2 7 4 10 14 1 22 30 31 29 24 27
54 41 39 45 41 46 6 15 11 9 14 6 14 6 14 9 11 11 14 6 10 4 3 10 7 3 1 5 9 4 7 5 6 3 10 8 5 10 9 9 19 37 47 54 52
54 25 35 45 44 26 8 14 9 14 14 12 11 8 8 14 13 9 14 1 6 7 6 7 6 2 1 5 12 3 3 7 7 9 9 6 8 11 8 13 14 33 60 64 66
51 9 44 57 16 10 7 12 14 13 11 6 9 8 12 11 9 10 14 2 12 17 13 2 8 5 5 5 4 5 10 10 9 11 7 7 23 14 17 13 39 46 54 51 53
46 17 53 70 13 7 5 7 11 11 11 13 7 5 4 13 8 5 9 4 13 7 12 12 2 5 13 9 7 6 7 8 9 6 12 7 13 5 42 48 51 49 53 52 52
35 9 14 32 14 15 13 11 12 9 11 11 10 9 8 5 6 10 8 2 7 10 12 10 7 13 13 9 8 8 8 8 11 6 8 20 26 26 23 25 50 58 53 43 48
30 16 29 17 29 12 24 28 20 17 9 23 4 11 14 8 5 7 5 6 8 9 7 9 10 5 5 6 5 10 11 17 15 12 13 34 10 21 13 24 39 38 33 32 38
43 20 29 15 55 31 30 22 35 9 22 13 10 18 9 15 17 18 17 7 11 4 5 6 5 5 8 7 6 8 17 19 21 9 16 20 27 7 11 16 33 35 31 31 30
37 39 48 29 32 30 27 22 28 31 7 18 26 13 12 6 13 26 21 26 24 15 7 9 11 6 9 8 10 15 16 25 8 9 13 8 14 2 8 17 31 34 34 32 33
Wind_Direction_500mb
51 50 28 26 35 69 67 76 79 82 82 76 86 104 113 97 76 92 66 55 56 61 68 80 106 84 67 66 59 46 59 67 30 97 136 34 29 17 1 348 34 60 67 0 333
53 63 63 52 51 52 70 69 74 75 75 88 107 122 112 99 88 77 68 62 55 48 76 88 81 59 44 34 32 62 88 147 309 107 134 65 35 360 1 332 322 320 348 347 329
100 96 82 66 56 56 63 44 46 60 75 97 123 132 128 117 72 42 55 59 65 71 86 93 85 46 53 39 20 36 127 144 30 88 42 10 355 344 340 314 287 313 325 325 325
98 93 89 79 75 68 50 43 33 51 86 109 125 134 119 106 103 52 50 48 56 79 109 105 74 64 65 54 23 75 30 21 89 13 356 329 317 319 281 273 334 319 329 334 339
19 59 57 66 73 82 70 43 33 61 87 109 124 134 114 81 86 77 60 41 42 63 92 76 62 38 73 71 58 60 352 336 307 301 290 281 275 273 282 292 287 290 313 340 333
68 21 69 60 67 107 104 115 107 87 102 130 142 156 136 81 99 75 57 42 4 34 75 73 88 76 73 68 79 337 313 300 301 287 244 261 290 342 323 343 328 331 347 327 324
163 167 152 125 145 191 140 93 89 123 133 139 138 120 123 105 115 96 81 65 56 47 79 93 94 109 82 85 16 352 355 342 351 272 216 320 338 227 329 325 308 348 331 305 324
182 194 190 199 184 220 207 137 125 132 155 154 144 123 96 111 105 119 78 69 74 77 84 94 93 87 55 20 30 31 48 28 328 102 356 10 278 289 348 319 314 322 308 284 320
200 193 195 194 206 204 193 171 158 152 153 153 142 128 104 121 79 73 78 85 89 88 88 94 81 66 53 72 26 9 49 357 337 41 49 23 276 277 325 318 312 319 262 121 342
202 203 197 194 197 193 184 169 162 150 143 147 131 118 133 128 102 89 102 93 98 102 86 50 49 56 27 48 205 309 8 325 276 329 3 293 281 293 303 307 301 306 180 103 350
207 204 199 198 194 189 177 147 148 131 132 90 103 97 126 122 101 103 109 97 84 66 75 39 68 82 22 42 105 140 180 268 267 303 343 169 283 290 315 309 319 163 130 77 360
212 206 202 198 196 191 188 201 207 151 102 102 110 112 142 134 102 95 87 65 52 85 58 31 83 244 211 69 90 54 358 336 296 336 335 351 293 324 21 6 2 150 143 303 337
207 206 201 200 193 196 202 209 169 151 76 101 122 142 154 154 108 77 81 90 89 73 61 106 156 53 44 21 39 29 24 6 275 323 323 347 337 338 46 68 79 110 189 24 8
207 206 202 194 196 197 203 197 165 154 69 218 146 359 141 135 51 98 90 89 50 116 102 87 48 67 52 51 88 33 348 327 324 25 315 50 283 308 338 344 298 279 304 37 15
210 205 202 192 186 178 182 168 156 131 359 96 135 144 131 135 127 35 92 81 102 103 95 176 104 69 57 15 2 245 292 285 265 92 1 3 66 274 329 319 330 329 296 340 352
213 203 201 200 193 176 161 148 139 46 260 174 126 144 105 95 87 116 107 74 98 81 46 100 85 96 148 45 49 304 334 41 48 75 28 247 111 283 301 325 336 335 268 256 303
216 204 199 198 192 176 157 144 48 146 359 248 177 161 133 155 124 129 131 115 149 102 128 43 6 45 85 83 10 51 40 352 354 5 217 249 3 246 298 5 311 301 272 236 254
215 207 198 197 187 172 159 66 143 229 209 176 130 106 172 166 155 145 118 145 246 88 118 143 320 168 37 75 144 64 116 142 242 271 270 279 235 243 5 339 350 2 350 255 269
213 202 198 191 184 175 164 115 205 199 162 147 61 104 248 207 146 142 181 184 184 181 138 139 186 68 65 49 93 172 74 156 106 66 25 244 310 320 149 20 25 7 347 301 278
202 192 198 188 181 177 112 222 206 169 130 131 166 148 176 213 156 178 186 192 168 184 134 200 106 78 323 127 31 111 149 64 9 13 305 275 240 234 354 319 17 10 7 3 344
189 172 188 180 174 174 178 223 185 171 163 151 175 138 193 180 178 191 190 38 160 134 110 143 103 212 60 191 170 36 33 58 118 149 189 286 258 210 111 46 1 360 348 338 337
175 155 169 170 165 192 171 188 159 158 165 153 127 118 165 163 148 183 183 95 166 149 150 122 124 154 166 332 339 178 178 143 132 252 222 176 268 306 100 75 11 344 342 338 339
166 129 169 173 188 206 265 179 169 141 186 165 136 141 146 161 111 165 127 41 153 124 159 178 5 42 348 355 350 214 188 126 104 74 211 150 265 138 349 348 338 336 336 333 334
146 136 173 199 224 156 154 189 167 181 157 145 130 112 118 98 35 159 128 76 110 117 120 118 111 161 190 183 147 177 192 153 122 124 249 235 282 300 321 323 328 334 336 337 341
164 184 172 182 217 200 185 168 166 170 200 165 101 222 161 125 61 136 108 104 55 142 86 110 180 142 263 177 177 215 204 229 184 197 196 277 229 284 278 294 328 334 350 354 355
159 153 175 188 187 183 189 202 179 171 154 193 172 179 166 154 183 190 139 179 184 99 94 22 159 102 322 16 90 262 235 238 234 204 244 257 273 19 6 39 33 19 9 12 24
181 164 158 166 170 182 196 177 190 141 208 176 168 128 167 195 116 116 112 132 142 138 124 122 134 99 263 351 351 314 228 206 198 212 165 193 228 324 21 82 52 42 40 35 22
Wind_Speed_850mb
3 4 5 4 5 5 5 9 9 10 13 13 12 11 10 11 11 8 15 14 13 10 9 10 13 14 16 13 13 6 9 4 2 4 5 14 11 13 11 14 10 8 12 12 28
3 4 4 4 4 5 6 6 7 10 11 12 11 11 13 17 18 20 17 16 12 9 6 10 13 14 8 11 10 11 7 3 4 5 6 2 9 14 11 21 10 15 14 20 34
3 3 6 6 6 5 5 5 8 9 8 8 9 12 13 7 8 14 15 12 11 10 13 14 11 11 12 13 13 6 5 4 7 9 9 9 15 18 11 7 5 11 25 32 41
1 3 7 7 7 6 5 6 6 6 7 7 9 12 10 2 5 8 10 9 7 7 9 10 8 6 8 7 11 8 14 8 4 6 7 7 11 19 8 8 3 10 12 17 26
1 3 5 6 6 5 4 4 4 4 5 7 8 12 7 10 10 7 8 6 4 4 9 12 17 9 6 5 7 7 9 11 10 12 9 9 12 10 30 29 19 9 10 13 20
1 2 4 3 3 3 2 2 2 3 4 8 9 6 5 9 7 7 5 4 2 5 7 7 9 11 8 7 8 6 12 22 18 9 5 5 8 7 5 6 3 6 7 13 20
2 1 0 2 2 1 2 1 2 4 5 7 8 8 9 9 8 7 5 7 6 8 9 11 9 4 5 5 8 6 10 13 8 7 5 5 6 6 17 7 9 9 5 8 17
6 4 3 3 3 2 1 1 3 4 5 8 9 5 9 9 7 4 5 9 10 10 10 10 9 10 6 3 7 8 9 9 10 9 7 8 12 10 3 6 15 19 6 5 13
9 8 7 5 4 4 3 4 5 7 8 8 7 6 8 8 3 3 4 8 12 13 13 9 7 8 5 8 8 13 2 6 12 11 2 8 14 15 8 25 38 24 8 0 8
15 13 11 9 7 6 5 6 6 6 7 7 9 6 9 5 6 8 7 8 11 15 12 8 10 7 9 10 3 1 4 5 6 10 13 9 26 20 40 37 47 20 11 5 13
19 17 14 11 10 8 8 9 7 4 5 8 7 10 12 11 6 8 11 11 10 10 7 9 13 4 1 4 4 4 2 4 8 9 10 3 14 34 44 26 31 13 14 9 15
21 19 16 14 11 10 11 5 4 8 13 11 12 12 15 7 5 8 4 3 7 6 4 11 7 3 2 6 6 5 4 7 10 9 6 13 19 11 14 10 11 23 14 2 12
26 23 20 17 14 12 12 7 8 9 6 3 7 6 8 6 4 4 4 5 8 6 7 9 2 6 5 7 8 7 5 5 7 14 4 12 13 14 10 15 15 8 2 4 14
30 28 24 19 13 15 12 12 13 8 8 3 3 1 5 6 5 3 6 5 5 6 7 8 5 5 7 7 5 4 4 4 8 10 4 10 8 11 13 8 7 6 3 7 16
35 32 29 27 10 20 11 15 15 6 5 3 4 7 9 6 9 7 5 5 7 5 7 4 5 8 9 2 3 6 4 7 3 3 5 10 7 14 8 6 9 20 7 4 9
39 36 35 32 20 19 19 23 17 11 12 4 5 6 7 3 3 7 4 7 7 8 8 5 5 5 5 2 5 6 5 12 9 4 6 5 7 9 6 7 10 15 9 8 6
43 39 39 36 25 24 29 27 9 7 8 6 6 7 4 6 4 4 5 4 7 9 2 7 4 2 4 5 9 12 11 8 12 9 8 5 4 13 10 9 10 23 20 16 8
44 40 43 38 28 33 38 9 7 6 11 5 8 8 9 8 2 5 8 4 3 7 6 9 8 2 4 4 6 6 8 9 9 5 9 8 8 5 6 15 22 29 14 6 15
48 42 43 43 36 44 30 5 16 14 14 18 8 9 5 6 8 6 11 11 9 9 11 8 3 3 7 4 5 1 4 5 8 2 7 4 10 14 1 22 30 31 29 24 27
54 41 39 45 41 46 6 15 11 9 14 6 14 6 14 9 11 11 14 6 10 4 3 10 7 3 1 5 9 4 7 5 6 3 10 8 5 10 9 9 19 37 47 54 52
54 25 35 45 44 26 8 14 9 14 14 12 11 8 8 14 13 9 14 1 6 7 6 7 6 2 1 5 12 3 3 7 7 9 9 6 8 11 8 13 14 33 60 64 66
51 9 44 57 16 10 7 12 14 13 11 6 9 8 12 11 9 10 14 2 12 17 13 2 8 5 5 5 4 5 10 10 9 11 7 7 23 14 17 13 39 46 54 51 53
46 17 53 70 13 7 5 7 11 11 11 13 7 5 4 13 8 5 9 4 13 7 12 12 2 5 13 9 7 6 7 8 9 6 12 7 13 5 42 48 51 49 53 52 52
35 9 14 32 14 15 13 11 12 9 11 11 10 9 8 5 6 10 8 2 7 10 12 10 7 13 13 9 8 8 8 8 11 6 8 20 26 26 23 25 50 58 53 43 48
30 16 29 17 29 12 24 28 20 17 9 23 4 11 14 8 5 7 5 6 8 9 7 9 10 5 5 6 5 10 11 17 15 12 13 34 10 21 13 24 39 38 33 32 38
43 20 29 15 55 31 30 22 35 9 22 13 10 18 9 15 17 18 17 7 11 4 5 6 5 5 8 7 6 8 17 19 21 9 16 20 27 7 11 16 33 35 31 31 30
37 39 48 29 32 30 27 22 28 31 7 18 26 13 12 6 13 26 21 26 24 15 7 9 11 6 9 8 10 15 16 25 8 9 13 8 14 2 8 17 31 34 34 32 33
Wind_Direction_850mb
51 50 28 26 35 69 67 76 79 82 82 76 86 104 113 97 76 92 66 55 56 61 68 80 106 84 67 66 59 46 59 67 30 97 136 34 29 17 1 348 34 60 67 0 333
53 63 63 52 51 52 70 69 74 75 75 88 107 122 112 99 88 77 68 62 55 48 76 88 81 59 44 34 32 62 88 147 309 107 134 65 35 360 1 332 322 320 348 347 329
100 96 82 66 56 56 63 44 46 60 75 97 123 132 128 117 72 42 55 59 65 71 86 93 85 46 53 39 20 36 127 144 30 88 42 10 355 344 340 314 287 313 325 325 325
98 93 89 79 75 68 50 43 33 51 86 109 125 134 119 106 103 52 50 48 56 79 109 105 74 64 65 54 23 75 30 21 89 13 356 329 317 319 281 273 334 319 329 334 339
19 59 57 66 73 82 70 43 33 61 87 109 124 134 114 81 86 77 60 41 42 63 92 76 62 38 73 71 58 60 352 336 307 301 290 281 275 273 282 292 287 290 313 340 333
68 21 69 60 67 107 104 115 107 87 102 130 142 156 136 81 99 75 57 42 4 34 75 73 88 76 73 68 79 337 313 300 301 287 244 261 290 342 323 343 328 331 347 327 324
163 167 152 125 145 191 140 93 89 123 133 139 138 120 123 105 115 96 81 65 56 47 79 93 94 109 82 85 16 352 355 342 351 272 216 320 338 227 329 325 308 348 331 305 324
182 194 190 199 184 220 207 137 125 132 155 154 144 123 96 111 105 119 78 69 74 77 84 94 93 87 55 20 30 31 48 28 328 102 356 10 278 289 348 319 314 322 308 284 320
200 193 195 194 206 204 193 171 158 152 153 153 142 128 104 121 79 73 78 85 89 88 88 94 81 66 53 72 26 9 49 357 337 41 49 23 276 277 325 318 312 319 262 121 342
202 203 197 194 197 193 184 169 162 150 143 147 131 118 133 128 102 89 102 93 98 102 86 50 49 56 27 48 205 309 8 325 276 329 3 293 281 293 303 307 301 306 180 103 350
207 204 199 198 194 189 177 147 148 131 132 90 103 97 126 122 101 103 109 97 84 66 75 39 68 82 22 42 105 140 180 268 267 303 343 169 283 290 315 309 319 163 130 77 360
212 206 202 198 196 191 188 201 207 151 102 102 110 112 142 134 102 95 87 65 52 85 58 31 83 244 211 69 90 54 358 336 296 336 335 351 293 324 21 6 2 150 143 303 337
207 206 201 200 193 196 202 209 169 151 76 101 122 142 154 154 108 77 81 90 89 73 61 106 156 53 44 21 39 29 24 6 275 323 323 347 337 338 46 68 79 110 189 24 8
207 206 202 194 196 197 203 197 165 154 69 218 146 359 141 135 51 98 90 89 50 116 102 87 48 67 52 51 88 33 348 327 324 25 315 50 283 308 338 344 298 279 304 37 15
210 205 202 192 186 178 182 168 156 131 359 96 135 144 131 135 127 35 92 81 102 103 95 176 104 69 57 15 2 245 292 285 265 92 1 3 66 274 329 319 330 329 296 340 352
213 203 201 200 193 176 161 148 139 46 260 174 126 144 105 95 87 116 107 74 98 81 46 100 85 96 148 45 49 304 334 41 48 75 28 247 111 283 301 325 336 335 268 256 303
216 204 199 198 192 176 157 144 48 146 359 248 177 161 133 155 124 129 131 115 149 102 128 43 6 45 85 83 10 51 40 352 354 5 217 249 3 246 298 5 311 301 272 236 254
215 207 198 197 187 172 159 66 143 229 209 176 130 106 172 166 155 145 118 145 246 88 118 143 320 168 37 75 144 64 116 142 242 271 270 279 235 243 5 339 350 2 350 255 269
213 202 198 191 184 175 164 115 205 199 162 147 61 104 248 207 146 142 181 184 184 181 138 139 186 68 65 49 93 172 74 156 106 66 25 244 310 320 149 20 25 7 347 301 278
202 192 198 188 181 177 112 222 206 169 130 131 166 148 176 213 156 178 186 192 168 184 134 200 106 78 323 127 31 111 149 64 9 13 305 275 240 234 354 319 17 10 7 3 344
189 172 188 180 174 174 178 223 185 171 163 151 175 138 193 180 178 191 190 38 160 134 110 143 103 212 60 191 170 36 33 58 118 149 189 286 258 210 111 46 1 360 348 338 337
175 155 169 170 165 192 171 188 159 158 165 153 127 118 165 163 148 183 183 95 166 149 150 122 124 154 166 332 339 178 178 143 132 252 222 176 268 306 100 75 11 344 342 338 339
166 129 169 173 188 206 265 179 169 141 186 165 136 141 146 161 111 165 127 41 153 124 159 178 5 42 348 355 350 214 188 126 104 74 211 150 265 138 349 348 338 336 336 333 334
146 136 173 199 224 156 154 189 167 181 157 145 130 112 118 98 35 159 128 76 110 117 120 118 111 161 190 183 147 177 192 153 122 124 249 235 282 300 321 323 328 334 336 337 341
164 184 172 182 217 200 185 168 166 170 200 165 101 222 161 125 61 136 108 104 55 142 86 110 180 142 263 177 177 215 204 229 184 197 196 277 229 284 278 294 328 334 350 354 355
159 153 175 188 187 183 189 202 179 171 154 193 172 179 166 154 183 190 139 179 184 99 94 22 159 102 322 16 90 262 235 238 234 204 244 257 273 19 6 39 33 19 9 12 24
181 164 158 166 170 182 196 177 190 141 208 176 168 128 167 195 116 116 112 132 142 138 124 122 134 99 263 351 351 314 228 206 198 212 165 193 228 324 21 82 52 42 40 35 22